Location: Pedholt
(56.0260°N, 10.2097°E)
Time: 20:37:15
(UTC+00:00)

Tiros 1 - Pass Details

Date: 04 August 2021
Orbit: 630 x 663 km, 48.4° (Epoch: 19 September)

Event Time Altitude Azimuth Distance (km) Brightness Sun altitude
Rises 19:21:29 0° 258° (WSW) 2,982 11.3 -1.0°
Reaches altitude 10° 19:24:01 10° 249° (WSW) 2,065 10.3 -1.3°
Maximum altitude 19:28:14 32° 187° (S) 1,116 8.2 -1.8°
Drops below altitude 10° 19:32:25 10° 124° (SE) 2,045 9.0 -2.2°
Enters shadow 19:34:12 - 117° (ESE) 2,679 9.6 -2.4°
Sets 19:34:55 0° 115° (ESE) 2,948 - -2.5°
